[[{"header":{"parameterUnit":"m.s-1","parameterCategory":1,"la1":30.2991,"la2":30.254,"lo1":-89.0895,"lo2":-89.0444,"dy":0.0017,"dx":0.0017,"nx":28,"ny":28,"refTime":"2023-09-06T21:00:00:Z","depth":0,"parameterNumber":2,"parameterNumberName":"U-component_of_WINDS"},"data":[0,0,0,0,0,0,0,0,0,0,0,0,0,0,0,0,0,0,0,0,0,0,0,0,0,0,0,0,0,0,0,0,0,0,0,0,0,0,0,0,0,0,0,0,0,0,0,0,0,0,0,0,0,0,0,0,0,0,1.6265,1.6264,0,1.6149,1.6147,1.6146,1.6003,1.6,1.5998,1.5996,1.5886,1.5885,1.5884,0,0,0,0,0,0,0,0,0,0,0,0,0,1.6371,1.637,1.6265,1.6264,1.6262,1.6149,1.6147,1.6146,1.6003,1.6,1.5998,1.5995,1.5886,1.5885,1.5884,0,0,0,0,0,0,0,0,0,0,0,0,0,1.6297,1.6369,1.6265,1.6177,1.6168,1.6149,1.6147,1.6145,1.6004,1.6,1.5997,1.5994,1.5886,1.5885,1.5884,1.5945,0,0,1.588,1.588,0,0,0,0,0,0,0,0,1.6301,1.6293,1.6192,1.6183,1.6173,1.6086,1.6144,1.6079,1.6005,1.6066,1.5996,1.5992,1.5956,1.5949,1.5935,1.594,1.5935,1.588,1.588,1.5879,1.5879,0,0,0,0,0,0,0,1.6307,1.6298,1.6219,1.619,1.6179,1.6146,1.6131,1.6131,1.6032,1.6061,1.605,1.6038,1.595,1.5936,1.5931,1.5934,1.588,1.5879,1.5878,1.5878,1.5982,1.5985,0,0,0,0,0,0,1.6324,1.6303,1.6223,1.6216,1.623,1.6147,1.6131,1.6118,1.6032,1.6015,1.6041,1.6032,1.594,1.5933,1.5927,1.5991,1.5879,1.5878,1.5877,1.5979,1.5983,1.5986,0,0,0,0,0,0,1.6327,1.6318,1.6228,1.6256,1.6242,1.6148,1.6135,1.6117,1.6103,1.6016,1.5999,1.6044,1.5937,1.5928,1.5941,1.5985,1.5877,1.5876,1.5974,1.598,1.5985,1.6121,0,0,0,0,0,0,1.633,1.632,1.6341,1.6258,1.6241,1.6242,1.6138,1.6118,1.61,1.6087,1.6015,1.6,1.5934,1.5943,1.594,1.5981,1.5875,1.597,1.5977,1.5983,1.6112,1.613,1.6146,0,0,0,0,0,1.6335,1.6386,1.6342,1.6334,1.6264,1.6244,1.6235,1.6155,1.6105,1.6125,1.607,1.6002,1.5981,1.5946,1.594,1.5983,1.5967,1.5975,1.5982,1.6104,1.6127,1.6145,0,0,0,0,0,0,1.648,1.6374,1.6324,1.635,1.6307,1.622,1.6244,1.6182,1.6155,1.6144,1.6049,1.6034,1.6058,1.6022,1.5984,1.6037,1.5964,1.5971,1.6059,1.6079,1.6096,1.6103,1.5874,0,0,0,0,0,1.6515,1.6505,1.6413,1.6445,1.6425,1.6339,1.6327,1.6269,1.6222,1.6204,1.6149,1.6109,1.6092,1.6084,1.6065,1.6107,1.6089,1.6133,1.615,1.6164,1.6171,1.6189,1.6208,1.6012,1.6012,1.6012,0,0,1.6587,1.6527,1.6528,1.6472,1.6432,1.6426,1.6325,1.6323,1.6317,1.6205,1.6211,1.617,1.6119,1.6146,1.6155,1.6116,1.6221,1.6174,1.6186,1.6185,1.6199,1.6218,1.6234,1.6018,1.6017,1.6016,0,0,1.6714,1.6669,1.6688,1.665,1.6589,1.6531,1.6536,1.6458,1.6425,1.643,1.6345,1.6339,1.6314,1.6279,1.6259,1.6373,1.631,1.637,1.6457,1.6476,1.6492,1.6505,1.6544,1.6559,1.6378,1.6378,1.6378,0,1.6812,1.6796,1.6708,1.6709,1.6688,1.6583,1.6603,1.6571,1.6509,1.6497,1.6454,1.6419,1.6377,1.6393,1.6421,1.6409,1.6412,1.6377,1.6496,1.6508,1.6519,1.6555,1.6571,1.6385,1.6385,1.6384,1.6383,0,1.6919,1.691,1.6933,1.6871,1.6853,1.6865,1.678,1.6772,1.6716,1.6663,1.6669,1.6615,1.6582,1.6582,1.6529,1.6591,1.6569,1.6513,1.6438,1.6547,1.6579,1.6593,1.6396,1.6393,1.6391,1.6389,0,0,1.7134,1.7022,1.7032,1.7002,1.6927,1.6919,1.6927,1.6891,1.6885,1.6847,1.6851,1.6831,1.6778,1.6755,1.6697,1.6714,1.6806,1.6655,1.6653,1.6684,1.6869,1.691,1.6928,1.6764,1.6766,1.6768,1.6873,0,1.7246,1.7249,1.7169,1.7194,1.7184,1.7084,1.7091,1.7047,1.6998,1.6984,1.6931,1.6918,1.6849,1.6834,1.6847,1.6792,1.6841,1.6784,1.6767,1.6768,1.6781,1.6945,1.6989,1.709,1.6885,1.6887,1.6889,0,1.7377,1.7341,1.7365,1.7287,1.728,1.7287,1.7247,1.7235,1.7183,1.7146,1.712,1.7053,1.7057,1.6987,1.6991,1.6953,1.6942,1.6915,1.6917,1.6911,1.6834,1.6942,1.7121,1.7136,1.6908,1.6907,1.6905,0,1.753,1.7488,1.7496,1.7474,1.7384,1.739,1.7354,1.7299,1.7282,1.7249,1.7237,1.7206,1.7189,1.7168,1.7095,1.7051,1.7107,1.7031,1.7077,1.7079,1.7092,1.7092,1.727,1.7089,1.7089,1.7088,1.7088,0,1.7662,1.768,1.7562,1.7567,1.7585,1.7494,1.7515,1.7469,1.7421,1.7416,1.733,1.7328,1.7233,1.7221,1.7165,1.7176,1.717,1.7141,1.7126,1.7147,1.7151,1.7138,1.7128,1.7092,1.7091,1.7091,1.709,0,1.7834,1.7756,1.7758,1.7672,1.765,1.7667,1.7594,1.7596,1.7541,1.7537,1.7531,1.7446,1.7428,1.7353,1.7318,1.728,1.7309,1.7281,1.7326,1.7315,1.7364,1.736,1.7539,1.7557,1.7367,1.7369,1.737,0,1.7923,1.7934,1.7848,1.7836,1.7803,1.7787,1.7768,1.768,1.7665,1.7606,1.7616,1.759,1.7563,1.7539,1.7476,1.7449,1.7417,1.7482,1.7413,1.7434,1.7416,1.7416,1.7416,1.7497,1.7499,1.7501,1.7503,0,1.8088,1.8048,1.8023,1.7984,1.7963,1.7929,1.7891,1.7888,1.779,1.7778,1.7755,1.7735,1.7697,1.7673,1.7634,1.7599,1.7535,1.7525,1.7534,1.7556,1.758,1.7566,1.7364,1.7521,1.7519,1.7518,1.7517,1.7516,1.822,1.8224,1.8163,1.8137,1.8098,1.8064,1.806,1.8004,1.7983,1.7942,1.7893,1.7877,1.7826,1.7767,1.7737,1.7724,1.7689,1.7702,1.7705,1.771,1.772,1.7584,1.7718,1.7717,1.7717,1.7716,1.7716,0,1.8379,1.8334,1.8311,1.8258,1.8238,1.8177,1.8131,1.8119,1.8105,1.806,1.8035,1.801,1.7986,1.792,1.7889,1.7892,1.7862,1.7887,1.7885,1.7878,1.7754,1.7748,1.7912,1.7912,1.7912,1.7912,1.7912,1.7912,1.8459,1.8462,1.8415,1.8398,1.8354,1.8334,1.8313,1.8281,1.8245,1.8219,1.8197,1.8153,1.8101,1.8065,1.804,1.8022,1.8014,1.8048,1.8021,1.7906,1.7887,1.7869,1.7863,1.8048,1.8048,1.8145,1.8146,1.8147]},{"header":{"parameterUnit":"m.s-1","parameterCategory":1,"la1":30.2991,"la2":30.254,"lo1":-89.0895,"lo2":-89.0444,"dy":0.0017,"dx":0.0017,"nx":28,"ny":28,"refTime":"2023-09-06T21:00:00:Z","depth":0,"parameterNumber":3,"parameterNumberName":"V-component_of_WINDS"},"data":[0,0,0,0,0,0,0,0,0,0,0,0,0,0,0,0,0,0,0,0,0,0,0,0,0,0,0,0,0,0,0,0,0,0,0,0,0,0,0,0,0,0,0,0,0,0,0,0,0,0,0,0,0,0,0,0,0,0,2.1477,2.1478,0,2.1546,2.1547,2.1548,2.1446,2.1443,2.1439,2.1436,2.1513,2.1519,2.1524,0,0,0,0,0,0,0,0,0,0,0,0,0,2.1262,2.1267,2.1477,2.1478,2.1479,2.1546,2.1547,2.1548,2.1447,2.1443,2.1438,2.1434,2.1512,2.1518,2.1525,0,0,0,0,0,0,0,0,0,0,0,0,0,2.1346,2.1268,2.1477,2.1436,2.1433,2.1546,2.1547,2.1548,2.1448,2.1443,2.1437,2.1432,2.151,2.1517,2.1525,2.1683,0,0,2.155,2.1554,0,0,0,0,0,0,0,0,2.1342,2.1354,2.1442,2.1439,2.1436,2.1482,2.15,2.1594,2.1449,2.1443,2.1436,2.143,2.1508,2.1516,2.1541,2.1687,2.169,2.1551,2.1556,2.1559,2.1562,0,0,0,0,0,0,0,2.1336,2.1351,2.1505,2.1443,2.144,2.1416,2.1422,2.1517,2.1505,2.1443,2.1436,2.1445,2.1505,2.1533,2.1542,2.1691,2.1551,2.1558,2.1563,2.1566,2.1968,2.1973,0,0,0,0,0,0,2.1334,2.1347,2.1503,2.1507,2.1375,2.1425,2.1431,2.1473,2.1503,2.1503,2.1449,2.144,2.1522,2.1532,2.1544,2.173,2.1559,2.1567,2.1572,2.1962,2.1969,2.1975,0,0,0,0,0,0,2.133,2.1349,2.15,2.1425,2.1442,2.1434,2.1482,2.1477,2.1505,2.1508,2.1506,2.148,2.1518,2.1533,2.1648,2.1731,2.1571,2.1578,2.1955,2.1964,2.1972,2.2103,0,0,0,0,0,0,2.1324,2.1348,2.1407,2.1427,2.1446,2.1602,2.1487,2.1482,2.1518,2.1506,2.1536,2.1536,2.1515,2.1637,2.1656,2.1739,2.1584,2.1948,2.1959,2.1969,2.2091,2.2115,2.2135,0,0,0,0,0,2.1317,2.1443,2.1411,2.143,2.152,2.1607,2.1619,2.159,2.1525,2.1585,2.1587,2.1535,2.1718,2.1649,2.1671,2.1757,2.1942,2.1956,2.1969,2.2081,2.211,2.2135,0,0,0,0,0,0,2.1438,2.1445,2.1409,2.1545,2.1576,2.159,2.1665,2.1622,2.1673,2.1661,2.1624,2.1632,2.1756,2.1768,2.1691,2.191,2.182,2.1838,2.1898,2.1926,2.1947,2.1943,2.1591,0,0,0,0,0,2.1479,2.1547,2.1551,2.1671,2.1688,2.1674,2.1711,2.1685,2.1717,2.173,2.174,2.1774,2.1839,2.1883,2.1943,2.2091,2.2096,2.2161,2.2183,2.2201,2.2218,2.2296,2.2325,2.2018,2.2018,2.2018,0,0,2.1568,2.158,2.1626,2.1695,2.1716,2.1789,2.1686,2.1768,2.1821,2.1743,2.1852,2.1861,2.1896,2.2028,2.2087,2.2042,2.2303,2.2218,2.2232,2.2239,2.2312,2.2342,2.2367,2.2027,2.2025,2.2024,0,0,2.1765,2.1782,2.1882,2.1904,2.1935,2.1924,2.1948,2.1968,2.197,2.2078,2.202,2.2084,2.2197,2.2224,2.2252,2.2457,2.2411,2.2477,2.2593,2.267,2.2694,2.2715,2.2788,2.2815,2.2493,2.2494,2.2494,0,2.1872,2.1977,2.194,2.2025,2.2057,2.1986,2.2088,2.2111,2.2162,2.2187,2.2134,2.2272,2.2292,2.2428,2.2478,2.2503,2.253,2.2475,2.2693,2.2714,2.2733,2.2802,2.283,2.2501,2.2501,2.25,2.2499,0,2.2106,2.218,2.2258,2.2305,2.2346,2.2439,2.2417,2.2463,2.2433,2.2428,2.2539,2.2558,2.262,2.265,2.2624,2.2783,2.2754,2.2698,2.2607,2.2771,2.2835,2.2862,2.2513,2.251,2.2508,2.2506,0,0,2.2386,2.2407,2.2437,2.2456,2.2484,2.2541,2.2631,2.2688,2.2728,2.2765,2.284,2.2935,2.2882,2.2915,2.289,2.2957,2.3117,2.2893,2.2893,2.2934,2.3293,2.3336,2.3367,2.3085,2.309,2.3094,2.329,0,2.2582,2.2735,2.2702,2.2853,2.292,2.2852,2.293,2.2956,2.2953,2.3011,2.3008,2.3076,2.3001,2.302,2.3083,2.3084,2.3189,2.3069,2.3156,2.316,2.3151,2.3401,2.3447,2.3631,2.3315,2.3319,2.3323,0,2.2834,2.2876,2.3032,2.3046,2.3073,2.3144,2.3193,2.3249,2.3277,2.3269,2.3304,2.3265,2.3355,2.3261,2.3384,2.3303,2.3336,2.3342,2.3348,2.3357,2.3252,2.3417,2.3689,2.3717,2.3362,2.3359,2.3356,0,2.3021,2.3117,2.3223,2.3241,2.3261,2.3312,2.3323,2.3345,2.3381,2.3424,2.3447,2.3501,2.3531,2.3574,2.3551,2.3485,2.3679,2.3583,2.3676,2.3677,2.3722,2.372,2.4005,2.3742,2.3741,2.3741,2.374,0,2.3245,2.3344,2.3307,2.3372,2.348,2.3441,2.355,2.3553,2.3573,2.3638,2.3582,2.3645,2.361,2.3671,2.3653,2.3758,2.3772,2.3769,2.3764,2.3775,2.3776,2.3798,2.3785,2.3748,2.3747,2.3745,2.3744,0,2.3475,2.3453,2.3564,2.3571,2.3575,2.3655,2.3662,2.3723,2.3714,2.3797,2.3814,2.3802,2.3869,2.385,2.3924,2.3912,2.4044,2.4022,2.4035,2.403,2.4124,2.4116,2.4435,2.4474,2.4185,2.4188,2.419,0,2.362,2.3693,2.3707,2.3745,2.3759,2.3822,2.3857,2.3822,2.3861,2.3896,2.3953,2.4015,2.4063,2.4174,2.4173,2.4229,2.4208,2.4315,2.4216,2.4225,2.421,2.4207,2.4214,2.4336,2.434,2.4342,2.4344,0,2.388,2.3864,2.3916,2.3964,2.4006,2.4043,2.4075,2.411,2.4076,2.4123,2.419,2.4227,2.43,2.4363,2.4413,2.4425,2.4381,2.4375,2.44,2.4413,2.4417,2.4416,2.409,2.4369,2.4366,2.4364,2.4363,2.4362,2.4072,2.4133,2.4152,2.4211,2.423,2.426,2.4317,2.4313,2.4367,2.4423,2.4399,2.4476,2.45,2.4562,2.458,2.4641,2.46,2.4636,2.4645,2.4655,2.4667,2.4406,2.465,2.4649,2.4649,2.4648,2.4647,0,2.4329,2.4336,2.4391,2.4435,2.4481,2.443,2.4462,2.4505,2.4573,2.4597,2.4644,2.4721,2.478,2.4781,2.4837,2.4885,2.4865,2.4901,2.4898,2.4901,2.47,2.4674,2.4915,2.4915,2.4915,2.4915,2.4915,2.4915,2.4468,2.4569,2.4556,2.4666,2.4673,2.4746,2.4768,2.4796,2.4815,2.4902,2.495,2.4949,2.4964,2.502,2.5072,2.5071,2.5094,2.5138,2.5129,2.4942,2.4916,2.489,2.4865,2.5143,2.5143,2.5325,2.5327,2.5328]}]]